Wind_Speed
4 5 4 3 2 2 3 4 4 4 4 5 5 5 5 5 5 6 5 5 5 5 4 5 5 5 5 5 6 6 5 5 5 5 5 5 5 5 6 5 5 5 5
4 5 5 4 3 3 4 4 5 5 5 5 6 5 5 5 6 6 6 5 5 5 5 5 6 6 6 6 6 6 5 5 5 5 5 5 5 5 5 5 5 6 5
4 5 5 5 5 4 5 5 6 6 6 7 7 6 7 7 7 7 6 6 6 6 6 6 6 7 7 6 5 5 5 5 5 5 5 5 5 6 6 6 6 6 6
6 6 6 5 5 5 6 6 6 6 7 7 7 7 7 7 8 8 8 7 7 7 8 8 7 8 8 6 6 5 5 5 5 5 5 6 6 6 7 7 7 7 7
7 7 7 6 6 5 6 6 6 6 7 7 7 7 8 9 8 9 9 8 8 8 8 8 8 8 7 6 6 5 6 6 6 6 7 7 7 7 8 8 8 8 8
8 8 8 7 7 7 7 6 6 6 7 8 8 8 9 9 9 9 10 9 8 8 8 9 8 8 7 7 7 7 7 7 7 7 7 8 8 8 8 9 9 9 9
9 9 8 8 8 7 7 8 8 8 8 9 8 8 9 9 9 9 10 9 9 9 9 9 9 9 8 8 7 7 8 8 8 8 8 8 8 9 9 9 9 10 10
9 9 9 8 8 8 8 9 9 9 9 9 9 9 9 9 9 8 8 9 9 9 10 9 9 9 9 9 8 8 9 8 8 9 9 10 10 9 9 10 10 10 11
10 10 9 9 9 10 10 10 10 10 10 10 9 9 9 9 9 9 9 9 9 9 9 9 10 10 9 9 9 9 9 9 9 10 10 10 10 11 10 11 11 11 12
11 12 10 10 10 10 10 11 10 10 10 10 10 10 9 9 9 9 9 10 10 10 10 9 9 8 8 9 9 9 9 10 10 11 11 11 11 12 12 12 12 13 13
13 11 11 10 11 10 11 11 11 11 9 9 10 11 10 10 9 9 9 10 11 11 10 9 8 8 8 9 9 9 10 10 10 11 11 11 11 12 12 13 13 14 14
13 13 12 11 12 11 11 11 11 10 9 9 10 10 10 9 9 10 10 11 11 11 10 9 8 9 9 10 10 10 10 11 11 11 11 11 11 11 12 13 14 15 15
13 12 11 13 12 11 11 11 10 9 9 9 10 10 9 9 10 10 10 11 11 10 10 10 10 10 11 11 11 11 10 11 11 11 11 11 12 13 13 14 15 15 16
14 12 11 12 12 12 12 11 9 9 9 10 9 10 10 9 10 10 10 11 11 11 11 12 12 12 12 12 12 11 11 12 12 12 12 13 13 13 14 14 15 16 16
14 12 12 12 12 12 11 10 9 9 10 10 10 9 9 10 10 10 11 11 12 12 12 13 13 13 12 12 13 12 13 13 13 13 13 13 13 13 14 14 15 16 17
16 14 13 13 12 11 10 10 10 10 11 11 11 12 11 11 10 11 11 12 11 12 12 12 13 13 13 13 13 13 14 14 14 15 15 15 15 15 16 16 17 17 18
17 15 14 14 12 11 11 11 12 12 12 12 12 11 11 12 12 12 12 12 12 12 13 13 14 13 14 14 14 14 15 15 14 15 16 16 16 17 18 18 19 19 19
17 17 16 17 17 15 14 13 13 13 13 12 12 12 12 13 13 13 12 13 13 13 13 14 14 13 14 15 15 15 16 16 16 16 16 17 18 19 19 20 21 21 21
19 18 19 19 18 16 15 15 15 15 14 14 14 13 14 14 14 14 14 14 14 14 15 14 15 14 15 15 16 16 17 17 17 17 18 19 20 20 20 20 21 22 22
22 20 18 18 18 17 17 16 17 16 15 14 14 14 15 15 15 15 14 15 16 16 16 16 16 15 16 17 17 17 17 17 18 19 19 20 21 21 21 21 22 22 23
23 21 19 18 18 18 18 18 18 17 17 16 16 15 15 16 16 16 16 16 17 17 16 16 16 17 17 18 18 18 18 18 19 20 20 21 22 22 22 22 23 23 23
23 22 20 19 19 18 18 18 17 17 17 17 17 17 17 17 17 18 18 17 17 17 17 17 17 17 18 19 19 18 18 19 20 20 21 21 22 23 24 24 24 25 26
24 21 20 20 20 19 19 19 19 18 18 18 17 17 18 18 18 18 18 18 18 18 18 18 18 19 19 19 19 19 19 20 20 21 21 22 23 24 25 25 26 26 27
22 21 21 21 20 20 20 20 20 20 19 19 18 18 19 19 18 19 19 19 18 18 19 19 20 20 20 20 19 19 20 20 20 21 22 23 24 25 26 26 27 27 28
22 21 21 21 20 20 21 21 21 21 20 19 19 19 19 19 19 20 20 20 20 20 20 20 21 21 21 20 20 19 20 21 21 22 23 24 25 25 26 27 27 27 28
21 21 22 22 21 21 21 21 21 21 21 21 20 20 20 20 20 20 20 19 20 20 20 20 20 20 21 21 21 21 21 21 22 23 24 24 25 26 27 28 28 29 30
Wind_Direction
341 336 323 312 330 347 345 336 326 324 323 326 329 321 318 315 315 321 328 326 320 321 320 322 322 317 311 302 300 291 289 289 285 282 284 284 278 269 270 269 264 261 264
306 318 322 310 314 318 325 325 317 313 312 317 320 312 308 312 317 320 320 315 315 314 309 315 316 315 313 305 297 293 292 292 289 283 281 279 271 269 265 271 269 264 263
302 301 306 319 321 318 316 316 313 310 309 311 312 304 302 304 305 305 309 308 306 298 300 303 311 314 309 304 298 287 280 279 283 285 277 273 270 267 270 267 273 269 267
284 290 289 297 303 309 308 312 310 308 309 315 321 314 309 307 305 297 295 297 294 294 294 300 306 312 308 299 291 285 273 278 276 273 268 272 271 273 271 267 269 270 267
289 290 298 295 299 308 312 311 316 313 317 319 322 322 312 308 304 298 290 288 289 289 292 296 299 301 305 298 286 284 272 273 273 271 272 273 272 271 267 266 268 270 268
283 290 294 298 305 304 305 308 312 307 309 310 313 319 318 311 302 295 294 288 287 289 289 294 296 298 300 296 287 279 277 277 274 272 277 278 276 272 269 265 267 270 270
276 274 279 290 298 301 299 301 301 301 299 301 308 312 314 313 307 298 294 289 289 286 287 289 291 295 292 289 286 282 282 283 277 275 279 280 278 273 271 267 267 270 273
274 277 277 279 287 294 296 296 295 296 297 300 305 305 306 309 308 302 298 293 292 292 291 287 288 292 289 286 281 279 280 281 280 281 281 280 279 275 270 265 265 267 270
274 275 275 270 276 281 285 288 289 292 294 295 297 295 296 300 303 301 300 301 294 291 294 290 285 286 289 286 282 282 282 282 287 285 282 280 278 274 267 266 264 267 267
265 265 267 268 269 273 281 291 293 294 292 289 289 291 289 288 291 296 296 298 296 292 292 291 288 286 289 287 281 281 283 284 287 287 284 283 277 271 268 267 267 268 271
267 256 262 268 271 272 277 285 290 287 286 287 290 289 285 283 287 293 295 296 296 291 286 286 284 288 290 290 288 283 283 285 287 285 283 282 280 276 272 270 269 271 272
266 264 266 267 271 272 275 281 284 280 279 283 290 294 289 281 283 288 292 297 296 290 284 281 281 285 285 286 288 289 285 284 284 283 280 281 280 281 277 274 275 274 274
268 269 272 275 272 275 277 279 280 277 279 283 288 290 290 284 284 290 293 294 297 291 283 283 280 279 281 283 284 284 285 284 284 285 283 283 283 281 281 281 280 277 277
267 272 275 277 275 273 275 282 278 277 282 283 284 287 290 291 290 288 292 290 290 285 282 282 280 279 278 278 281 283 283 284 286 285 284 284 284 283 284 285 285 283 283
265 267 273 275 272 273 275 278 281 281 282 285 288 287 292 293 294 294 294 294 290 284 280 280 278 278 279 279 281 282 283 282 285 286 288 288 286 285 286 288 288 288 285
266 269 271 273 268 267 270 272 276 281 281 283 286 288 289 292 295 297 300 300 298 286 278 282 283 282 282 284 284 284 287 286 283 285 286 288 286 286 286 286 287 287 287
268 269 270 275 273 268 265 268 274 277 281 287 289 287 287 290 292 294 297 302 303 298 293 290 286 283 283 286 284 282 283 285 287 286 286 287 287 287 287 286 286 287 287
272 274 272 274 273 273 270 270 272 275 279 285 288 288 289 292 292 292 293 299 302 302 302 296 289 287 286 286 283 282 283 284 286 287 286 286 287 289 288 286 286 286 288
272 274 270 268 269 271 270 269 269 272 277 281 286 287 289 291 290 290 291 295 300 301 302 300 294 289 288 288 286 285 286 285 286 287 289 289 289 288 288 288 288 287 288
271 273 271 266 265 266 266 268 272 273 275 278 283 287 289 291 291 291 291 293 294 293 294 296 294 292 291 289 288 290 289 287 287 288 290 291 291 289 289 289 290 290 290
269 268 267 264 264 264 264 266 268 269 272 276 281 286 288 288 290 291 291 292 293 291 291 293 292 292 293 293 292 290 290 291 290 289 290 291 292 290 290 290 292 293 295
267 266 267 267 266 264 266 270 270 269 272 275 282 284 285 287 292 291 290 290 291 290 290 292 292 292 294 295 293 292 292 292 292 291 291 292 292 291 291 291 292 295 297
264 261 263 265 264 265 267 268 269 270 272 276 281 285 288 291 293 294 292 291 290 289 289 290 291 292 292 293 294 294 292 292 292 293 294 294 294 293 294 294 294 295 297
259 260 262 264 263 262 264 265 267 269 272 276 279 284 287 292 295 297 293 290 289 289 289 290 291 292 292 290 291 292 292 292 293 295 295 296 296 294 294 295 295 295 296
258 259 261 263 263 263 263 265 267 269 271 273 276 281 286 290 293 295 293 290 289 288 288 290 292 293 293 292 292 291 292 294 294 296 296 296 296 295 295 295 295 296 296
259 258 261 261 261 263 264 265 265 267 269 272 276 281 284 287 290 293 293 292 292 290 288 289 292 293 292 291 292 292 292 293 294 295 296 296 296 296 296 296 296 297 297
Height
5917 5916 5916 5915 5915 5914 5914 5913 5913 5912 5912 5911 5911 5910 5909 5909 5908 5907 5906 5906 5905 5904 5904 5903 5902 5901 5900 5900 5899 5898 5898 5897 5897 5896 5896 5895 5895 5894 5894 5893 5893 5893 5892
5916 5916 5915 5915 5914 5914 5913 5912 5912 5911 5911 5910 5910 5909 5908 5907 5907 5906 5905 5904 5904 5903 5902 5902 5901 5900 5899 5898 5898 5897 5896 5896 5896 5895 5894 5894 5894 5893 5893 5892 5892 5892 5891
5915 5915 5914 5914 5913 5912 5912 5911 5911 5910 5910 5909 5908 5907 5906 5906 5906 5905 5904 5903 5902 5902 5901 5900 5899 5898 5897 5897 5896 5896 5895 5895 5894 5894 5894 5893 5893 5892 5892 5892 5891 5890 5890
5913 5913 5913 5913 5912 5911 5910 5910 5909 5909 5908 5907 5906 5906 5905 5904 5904 5903 5902 5901 5901 5900 5899 5898 5897 5897 5895 5895 5894 5894 5894 5893 5893 5892 5892 5892 5891 5891 5890 5890 5889 5889 5888
5911 5911 5912 5911 5910 5909 5908 5907 5907 5907 5906 5906 5905 5904 5903 5902 5902 5901 5900 5899 5899 5898 5897 5896 5896 5895 5894 5893 5892 5892 5892 5891 5891 5890 5890 5889 5889 5888 5888 5888 5887 5887 5886
5909 5910 5910 5909 5908 5908 5907 5906 5905 5906 5905 5904 5903 5902 5902 5900 5899 5898 5897 5896 5896 5896 5895 5894 5894 5893 5892 5891 5890 5890 5890 5889 5889 5888 5888 5887 5886 5886 5885 5885 5885 5884 5884
5908 5908 5908 5907 5907 5906 5905 5905 5904 5904 5903 5902 5901 5901 5900 5898 5897 5896 5895 5894 5894 5893 5892 5892 5892 5891 5890 5889 5889 5888 5888 5887 5886 5886 5885 5884 5884 5883 5883 5882 5882 5882 5882
5905 5905 5905 5905 5904 5904 5904 5903 5902 5902 5901 5900 5899 5898 5897 5896 5895 5894 5893 5892 5891 5891 5890 5890 5889 5888 5888 5887 5886 5886 5885 5884 5883 5883 5882 5881 5881 5880 5880 5879 5879 5879 5878
5902 5903 5902 5902 5902 5902 5901 5900 5900 5900 5899 5898 5897 5896 5895 5894 5893 5892 5891 5890 5889 5888 5888 5887 5887 5886 5885 5885 5884 5883 5882 5882 5881 5880 5879 5878 5877 5877 5876 5876 5876 5876 5875
5897 5898 5899 5898 5898 5899 5898 5898 5898 5897 5896 5895 5895 5894 5893 5892 5891 5890 5889 5888 5887 5886 5886 5885 5884 5883 5883 5882 5881 5880 5879 5878 5878 5877 5876 5875 5874 5873 5873 5873 5872 5872 5872
5894 5894 5894 5894 5895 5895 5896 5896 5894 5894 5893 5893 5892 5890 5889 5889 5888 5888 5887 5886 5885 5884 5884 5883 5882 5881 5880 5879 5878 5877 5876 5875 5875 5874 5873 5871 5871 5870 5869 5869 5869 5868 5868
5890 5890 5890 5891 5891 5891 5892 5892 5891 5891 5890 5889 5889 5888 5886 5886 5885 5885 5884 5883 5882 5881 5881 5880 5879 5878 5878 5877 5876 5875 5874 5873 5872 5870 5869 5868 5867 5866 5866 5865 5864 5864 5863
5887 5887 5888 5887 5887 5888 5888 5888 5888 5888 5887 5886 5886 5885 5884 5883 5883 5882 5881 5880 5879 5878 5877 5877 5876 5875 5875 5874 5872 5871 5870 5869 5868 5867 5865 5865 5864 5863 5862 5861 5860 5859 5859
5884 5884 5885 5884 5885 5886 5885 5885 5884 5885 5884 5884 5883 5882 5881 5881 5880 5879 5878 5877 5876 5875 5874 5873 5872 5872 5871 5870 5869 5868 5867 5866 5864 5863 5862 5861 5860 5859 5858 5857 5856 5855 5854
5880 5881 5882 5882 5882 5882 5882 5882 5882 5882 5882 5881 5880 5879 5879 5878 5877 5876 5875 5873 5872 5871 5870 5869 5868 5868 5867 5866 5865 5864 5863 5862 5860 5859 5858 5857 5856 5855 5854 5853 5851 5850 5849
5876 5877 5878 5878 5878 5878 5879 5879 5879 5879 5878 5878 5877 5876 5876 5874 5873 5872 5871 5870 5869 5867 5866 5865 5865 5864 5863 5862 5861 5860 5859 5858 5856 5855 5854 5853 5852 5850 5849 5848 5846 5845 5844
5872 5873 5873 5874 5874 5875 5875 5875 5875 5875 5875 5874 5872 5872 5872 5871 5870 5869 5868 5867 5866 5864 5863 5862 5861 5860 5859 5858 5857 5856 5855 5854 5853 5851 5850 5848 5847 5845 5844 5842 5841 5839 5837
5868 5869 5869 5870 5871 5871 5871 5871 5871 5871 5871 5871 5870 5869 5869 5868 5867 5866 5865 5864 5862 5860 5859 5857 5856 5856 5855 5854 5853 5851 5850 5849 5848 5847 5845 5844 5842 5840 5838 5836 5835 5833 5831
5863 5864 5865 5866 5867 5867 5866 5867 5867 5867 5867 5867 5866 5866 5865 5864 5863 5862 5861 5860 5858 5857 5855 5854 5853 5852 5851 5849 5848 5847 5845 5844 5843 5842 5840 5838 5837 5835 5832 5830 5828 5827 5824
5859 5860 5860 5861 5862 5862 5862 5862 5862 5862 5862 5862 5862 5861 5861 5860 5859 5858 5857 5856 5854 5853 5851 5850 5849 5847 5846 5845 5843 5842 5840 5839 5837 5836 5834 5833 5831 5828 5826 5824 5822 5820 5818
5854 5855 5855 5855 5856 5856 5856 5856 5857 5857 5857 5857 5857 5857 5856 5855 5854 5853 5852 5851 5850 5848 5847 5845 5844 5843 5841 5840 5838 5837 5835 5834 5832 5830 5829 5827 5824 5822 5820 5818 5816 5813 5811
5847 5848 5849 5849 5850 5851 5851 5851 5851 5852 5851 5852 5853 5852 5851 5851 5849 5848 5847 5846 5845 5843 5842 5840 5839 5838 5836 5835 5833 5831 5830 5828 5826 5825 5823 5821 5819 5816 5814 5811 5809 5807 5804
5840 5841 5842 5844 5845 5845 5846 5846 5847 5847 5847 5847 5847 5847 5846 5845 5844 5843 5842 5840 5839 5838 5836 5835 5834 5832 5831 5829 5828 5826 5824 5822 5820 5818 5816 5814 5812 5810 5807 5805 5802 5800 5797
5833 5835 5837 5838 5839 5840 5841 5841 5841 5842 5842 5842 5842 5841 5840 5839 5838 5837 5836 5834 5833 5832 5831 5829 5828 5826 5825 5823 5822 5820 5818 5816 5814 5812 5810 5808 5805 5803 5800 5797 5795 5792 5789
5827 5829 5830 5832 5833 5834 5835 5835 5836 5836 5836 5836 5836 5836 5835 5834 5833 5832 5830 5829 5828 5827 5826 5824 5822 5820 5819 5817 5816 5814 5812 5810 5808 5806 5804 5801 5798 5796 5793 5790 5787 5784 5781
5821 5823 5824 5826 5827 5828 5829 5829 5830 5830 5831 5831 5830 5830 5829 5829 5827 5825 5824 5823 5822 5821 5819 5818 5816 5814 5813 5811 5809 5808 5806 5804 5802 5799 5797 5794 5791 5788 5785 5782 5779 5776 5773